Weather History for 94866 - February, 2014

Change the Weather History Date:

Saturday, February 1, 2014

  Actual Average Record
Temperature  
Mean Temperature 78 °F -  
Max Temperature 91 °F 77 °F - ()
Min Temperature 64 °F 56 °F - ()
Cooling Degree Days 12    
Growing Degree Days 28 (Base 50)    
Moisture  
Dew Point 58 °F    
Average Humidity 58    
Maximum Humidity 88    
Minimum Humidity 14    
Precipitation  
Precipitation 0.00 in 0.05 in - ()
Sea Level Pressure  
Sea Level Pressure 29.85 in    
Wind  
Wind Speed 8 mph ()    
Max Wind Speed 14 mph    
Max Gust Speed -    
Visibility 7.3 miles    
Events      
T = Trace of Precipitation, MM = Missing Value Source: Averaged Metar Reports

Daily Weather History Graph

Daily Weather History Graph

Search for Another Location

Airport or City:

Trip Planner

Search our weather history database for the weather conditions in past years. The results will help you decide how hot, cold, wet, or windy it might be!

Date:

Astronomy

Feb. 01, 2014 Rise Set
Actual Time 6:34 AM AEDT 8:33 PM AEDT
Civil Twilight 6:05 AM AEDT 9:02 PM AEDT
Nautical Twilight 5:30 AM AEDT 9:37 PM AEDT
Astronomical Twilight 4:52 AM AEDT 10:14 PM AEDT
Moon 7:56 AM AEDT (2/1) 9:09 PM AEDT (2/1)
Length of Visible Light 14h 56m
Length of Day
13h 59m
New Moon, 2% of the Moon is Illuminated
Feb 1
New Moon
Feb 7
First Quarter
Feb 15
Full
Feb 23
Last Quarter
Mar 1
New

Hourly Weather History & Observations

Time (AEDT) Temp. Heat Index Dew Point Humidity Pressure Visibility Wind Dir Wind Speed Gust Speed Precip Events Conditions
12:00 AM 65 °F - 61 °F 81% 29.93 in 9 mi WSW 11.5 mph - -   Haze
12:00 AM 64.4 °F - 60.8 °F 88% 29.92 in 6.2 mi WSW 11.5 mph - N/A   Mostly Cloudy
12:30 AM 64.4 °F - 60.8 °F 88% 29.92 in 6.2 mi WSW 12.7 mph - N/A   Mostly Cloudy
1:00 AM 64 °F - 61 °F 87% 29.92 in - West 11.5 mph - -  
1:00 AM 64.4 °F - 60.8 °F 88% 29.92 in 6.2 mi West 11.5 mph - N/A   Mostly Cloudy
1:30 AM 64.4 °F - 60.8 °F 88% 29.92 in 6.2 mi West 12.7 mph - N/A   Mostly Cloudy
2:00 AM 65 °F - 60 °F 81% 29.90 in - West 9.2 mph - -  
2:00 AM 64.4 °F - 60.8 °F 88% 29.89 in 6.2 mi West 9.2 mph - N/A   Mostly Cloudy
2:30 AM 64.4 °F - 60.8 °F 88% 29.89 in 6.2 mi West 11.5 mph - N/A   Mostly Cloudy
3:00 AM 65 °F - 60 °F 81% 29.88 in 9 mi West 10.4 mph - -   Haze
3:00 AM 66.2 °F - 60.8 °F 83% 29.89 in 6.2 mi West 10.4 mph - N/A   Mostly Cloudy
3:30 AM 66.2 °F - 60.8 °F 83% 29.86 in 6.2 mi West 9.2 mph - N/A   Overcast
4:00 AM 65 °F - 60 °F 81% 29.86 in - West 9.2 mph - -  
4:00 AM 66.2 °F - 60.8 °F 83% 29.86 in 6.2 mi West 9.2 mph - N/A   Overcast
4:30 AM 66.2 °F - 60.8 °F 83% 29.86 in 6.2 mi West 9.2 mph - N/A   Overcast
5:00 AM 65 °F - 61 °F 82% 29.85 in - West 8.1 mph - -  
5:00 AM 66.2 °F - 60.8 °F 83% 29.86 in 6.2 mi West 8.1 mph - N/A   Overcast
5:30 AM 66.2 °F - 60.8 °F 83% 29.86 in 6.2 mi West 9.2 mph - N/A   Overcast
6:00 AM 65 °F - 60 °F 80% 29.86 in 7 mi West 8.1 mph - -   Haze
6:00 AM 66.2 °F - 60.8 °F 83% 29.86 in 6.2 mi West 8.1 mph - N/A   Overcast
6:30 AM 64.4 °F - 60.8 °F 88% 29.86 in 6.2 mi West 8.1 mph - N/A   Overcast
7:00 AM 65 °F - 60 °F 81% 29.86 in - West 8.1 mph - -  
7:00 AM 66.2 °F - 60.8 °F 83% 29.86 in 6.2 mi West 8.1 mph - N/A   Overcast
7:30 AM 66.2 °F - 60.8 °F 83% 29.86 in 6.2 mi WSW 6.9 mph - N/A   Overcast
8:00 AM 66 °F - 61 °F 78% 29.87 in - WNW 6.9 mph - -  
8:00 AM 66.2 °F - 60.8 °F 83% 29.86 in 5.6 mi WNW 6.9 mph - N/A   Overcast
8:30 AM 66.2 °F - 60.8 °F 83% 29.89 in 5.6 mi WSW 4.6 mph - N/A   Overcast
9:00 AM 68 °F - 61 °F 71% 29.88 in 6 mi SW 4.6 mph - -   Haze
9:00 AM 68.0 °F - 60.8 °F 78% 29.89 in 6.2 mi SW 4.6 mph - N/A   Overcast
9:30 AM 69.8 °F - 60.8 °F 73% 29.89 in 6.2 mi SW 6.9 mph - N/A   Mostly Cloudy
10:00 AM 72 °F - 60 °F 58% 29.88 in - NW 3.5 mph - -  
10:00 AM 71.6 °F - 60.8 °F 69% 29.89 in 6.2 mi NW 3.5 mph - N/A   Partly Cloudy
10:30 AM 73.4 °F - 60.8 °F 65% 29.86 in 6.2 mi WNW 3.5 mph - N/A   Partly Cloudy
11:00 AM 76 °F - 60 °F 49% 29.86 in - East 4.6 mph - -  
11:00 AM 75.2 °F - 60.8 °F 61% 29.86 in - East 4.6 mph - N/A   Clear
11:30 AM 80.6 °F 81.5 °F 60.8 °F 51% 29.86 in - SSE 3.5 mph - N/A   Clear
12:00 PM 81 °F - 59 °F 37% 29.85 in 11 mi ESE 2.3 mph - -   Haze
12:00 PM 80.6 °F 81.1 °F 59.0 °F 48% 29.86 in - ESE 2.3 mph - N/A   Clear
12:30 PM 84.2 °F 83.8 °F 59.0 °F 42% 29.83 in - South 8.1 mph - N/A   Clear
1:00 PM 85 °F - 58 °F 29% 29.83 in - SSW 9.2 mph - -  
1:00 PM 86.0 °F 84.9 °F 57.2 °F 37% 29.83 in - SSW 9.2 mph - N/A   Clear
1:30 PM 89.6 °F 87.7 °F 55.4 °F 31% 29.83 in - South 6.9 mph - N/A   Clear
2:00 PM 90 °F - 57 °F 23% 29.81 in - SSE 8.1 mph - -  
2:00 PM 89.6 °F 88.1 °F 57.2 °F 33% 29.80 in - SSE 8.1 mph - N/A   Clear
2:30 PM 89.6 °F 88.9 °F 59.0 °F 36% 29.80 in - South 10.4 mph - N/A   Clear
3:00 PM 91 °F - 59 °F 24% 29.80 in 12 mi South 10.4 mph - -   Haze
3:00 PM 91.4 °F 90.7 °F 59.0 °F 34% 29.80 in - South 10.4 mph - N/A   Clear
3:30 PM 89.6 °F 88.9 °F 59.0 °F 36% 29.80 in - South 11.5 mph - N/A   Clear
4:00 PM 88 °F - 59 °F 28% 29.80 in - South 11.5 mph - -  
4:00 PM 87.8 °F 87.1 °F 59.0 °F 38% 29.80 in - South 11.5 mph - N/A   Clear
4:30 PM 87.8 °F 86.5 °F 57.2 °F 35% 29.80 in - SSE 12.7 mph - N/A   Clear
5:00 PM 88 °F - 57 °F 25% 29.79 in - SSE 10.4 mph - -  
5:00 PM 87.8 °F 86.5 °F 57.2 °F 35% 29.80 in - SSE 10.4 mph - N/A   Clear
5:30 PM 87.8 °F 86.5 °F 57.2 °F 35% 29.80 in - SSE 12.7 mph - N/A   Clear
5:42 PM 87.8 °F - 51.8 °F 29% 29.80 in - South 13.8 mph - N/A   Unknown
6:00 PM 87 °F - 45 °F 14% 29.80 in 12 mi SSE 13.8 mph - -   Haze
6:00 PM 87.8 °F - 44.6 °F 22% 29.80 in - SSE 13.8 mph - N/A   Clear
6:30 PM 84.2 °F 82.8 °F 53.6 °F 35% 29.80 in - South 12.7 mph - N/A   Clear
7:00 PM 84 °F - 59 °F 33% 29.81 in - SSE 11.5 mph - -  
7:00 PM 84.2 °F 83.8 °F 59.0 °F 42% 29.80 in - SSE 11.5 mph - N/A   Clear
7:30 PM 82.4 °F 81.7 °F 55.4 °F 39% 29.83 in - South 11.5 mph - N/A   Clear
8:00 PM 80 °F - 57 °F 35% 29.83 in - South 10.4 mph - -  
8:00 PM 78.8 °F - 57.2 °F 47% 29.83 in - South 10.4 mph - N/A   Clear
8:30 PM 75.2 °F - 55.4 °F 50% 29.83 in - South 8.1 mph - N/A   Clear
9:00 PM 74 °F - 53 °F 38% 29.85 in 19 mi SW 5.8 mph - -   Partly Cloudy
9:00 PM 73.4 °F - 53.6 °F 50% 29.86 in - SW 5.8 mph - N/A   Clear
9:30 PM 71.6 °F - 53.6 °F 53% 29.86 in - SW 8.1 mph - N/A   Clear
10:00 PM 71 °F - 54 °F 45% 29.87 in - SW 4.6 mph - -  
10:00 PM 71.6 °F - 53.6 °F 53% 29.86 in - SW 4.6 mph - N/A   Clear
10:30 PM 69.8 °F - 53.6 °F 56% 29.89 in - NNW 1.2 mph - N/A   Clear
11:00 PM 70 °F - 57 °F 54% 29.88 in - Calm Calm - -  
11:00 PM 69.8 °F - 57.2 °F 64% 29.89 in - Calm Calm - N/A   Clear
11:30 PM 68.0 °F - 57.2 °F 68% 29.86 in - WSW 1.2 mph - N/A   Clear